Location: Dillon
(41.1766°N, 107.0923°W)
Time: 21:18:03
(UTC+00:00)

RS-44 - Pass Details

Date: 05 July 2022
Orbit: 1175 x 1510 km, 82.5° (Epoch: 13 August)

Event Time Altitude Azimuth Distance (km) Brightness Sun altitude
Rises 04:11:51 0° 215° (SW) 4,359 ? -13.5°
Reaches altitude 10° 04:14:50 10° 223° (SW) 3,437 ? -13.9°
Maximum altitude 04:22:22 38° 289° (WNW) 2,071 ? -14.8°
Drops below altitude 10° 04:30:23 10° 355° (N) 3,643 ? -15.8°
Sets 04:33:40 0° 3° (N) 4,648 ? -16.1°
